Volver al catálogo

HJ-2A

ActivoCienciaSSO
NORAD 46478·PAYLOAD·🇨🇳 China

Lanzado Sep 27, 2020 desde Taiyuan Satellite Launch Center

Loading…

Próximos Pases (próximas 24 horas)

TLE

ActualizadoSource: Space-Track

Época: Sep 14, 2026, 14:49 UTC

1 46478U 20067A   26257.61756579  .00000258  00000-0  44178-4 0  9995
2 46478  97.8771 333.8468 0003418   2.3169 357.8057 14.76545765321452

Sigue HJ-2A en tiempo real con AllMySat

Download on the App Store